Flag for Colombia Weather past 2 weeks in San Andrés, Colombia

Now
84 °F

Partly sunny.


Feels Like: 94 °F
Forecast: 81 / 85 °F
Wind: 16 mph from East

Location: San Andres Isla / Sesquicentenario

Current Time: May 25, 2015 at 11:15:28 AM

Latest Report: May 25, 2015 at 11:00 AM


Visibility: N/A

Pressure: 29.94 "Hg

Humidity: 79%

Dew point: 77 °F

Location of San AndrésLocation

Historic Weather in San Andrés — Graph

°F

San Andrés temperature yesterday

Maximum temperature yesterday: 86 °F (at 12:00 PM)
Minimum temperature yesterday: 82 °F (at 12:00 AM)
Average temperature yesterday: 83 °F

Past Weeks' High & Low Weather Summary

 TemperatureHumidityPressure
High86 °F (May 10, 1:00 PM)94% (May 17, 3:00 AM)29.99 "Hg (May 17, 3:00 AM)
Low79 °F (May 17, 3:00 AM)70% (May 12, 11:00 AM)29.81 "Hg (May 10, 4:00 PM)
Average83 °F81%29.90 "Hg
* Reported May 10 9:00 AM — May 25 9:00 AM, San Andrés, Weather by CustomWeather, © 2015

Note: Actual official high and low records may vary slightly from our data, if they occured in-between our weather recording intervals... More about our weather records

Advertising

San Andrés weather history for previous 24 hours

 ConditionsComfort  
Time TempWeatherWind HumidityBarometerVisibility
9:00 AM
Mon, May 25
84 °FPartly sunny.17 mph79%29.94 "HgN/A
8:00 AM82 °FPartly sunny.18 mph79%29.92 "HgN/A
7:00 AM82 °FScattered clouds.16 mph79%29.90 "HgN/A
6:00 AM82 °FPartly sunny.16 mph79%29.89 "HgN/A
5:00 AM82 °FPassing clouds.15 mph84%29.86 "HgN/A
4:00 AM82 °FPartly cloudy.15 mph84%29.87 "HgN/A
3:00 AM82 °FPassing clouds.15 mph84%29.87 "HgN/A
2:00 AM82 °FOvercast.13 mph84%29.90 "HgN/A
1:00 AM82 °FPassing clouds.13 mph84%29.91 "HgN/A
12:00 AM82 °FMostly cloudy.12 mph84%29.93 "HgN/A
11:00 PM
Sun, May 24
82 °FOvercast.10 mph84%29.92 "HgN/A
10:00 PM82 °FPassing clouds.10 mph84%29.91 "HgN/A
9:00 PM82 °FPassing clouds.9 mph84%29.90 "HgN/A
8:00 PM82 °FPassing clouds.12 mph84%29.89 "HgN/A
7:00 PM82 °FPartly cloudy.10 mph79%29.88 "HgN/A
6:00 PM82 °FPartly sunny.7 mph79%29.86 "HgN/A
5:00 PM84 °FPartly sunny.8 mph79%29.86 "HgN/A
4:00 PM84 °FPartly sunny.10 mph74%29.88 "HgN/A
3:00 PM86 °FScattered clouds.9 mph75%29.89 "HgN/A
2:00 PM86 °FScattered clouds.7 mph75%29.91 "HgN/A
1:00 PM86 °FPartly sunny.9 mph70%29.93 "HgN/A
12:00 PM86 °FPartly sunny.13 mph70%29.93 "HgN/A
11:00 AM84 °FScattered clouds.14 mph79%29.93 "HgN/A
Weather by CustomWeather, © 2015

See weather overviewHow to use our weather pages